Year,Month,Day,Hour,Minute,Value (Times are PST for temperature in C)
2017,10,24,00,00,13.70
2017,10,24,00,01,13.70
2017,10,24,00,02,13.70
2017,10,24,00,03,13.70
2017,10,24,00,04,13.70
2017,10,24,00,05,13.70
2017,10,24,00,06,13.70
2017,10,24,00,07,13.70
2017,10,24,00,08,13.70
2017,10,24,00,09,13.70
2017,10,24,00,10,13.70
2017,10,24,00,11,13.70
2017,10,24,00,12,13.60
2017,10,24,00,13,13.60
2017,10,24,00,14,13.60
2017,10,24,00,15,13.60
2017,10,24,00,16,13.60
2017,10,24,00,17,13.60
2017,10,24,00,18,13.50
2017,10,24,00,19,13.50
2017,10,24,00,20,13.50
2017,10,24,00,21,13.50
2017,10,24,00,22,13.50
2017,10,24,00,23,13.50
2017,10,24,00,24,13.40
2017,10,24,00,25,13.40
2017,10,24,00,26,13.40
2017,10,24,00,27,13.40
2017,10,24,00,28,13.40
2017,10,24,00,29,13.40
2017,10,24,00,30,13.40
2017,10,24,00,31,13.30
2017,10,24,00,32,13.30
2017,10,24,00,33,13.30
2017,10,24,00,34,13.30
2017,10,24,00,35,13.30
2017,10,24,00,36,13.30
2017,10,24,00,37,13.30
2017,10,24,00,38,13.20
2017,10,24,00,39,13.20
2017,10,24,00,40,13.20
2017,10,24,00,41,13.20
2017,10,24,00,42,13.20
2017,10,24,00,43,13.20
2017,10,24,00,44,13.20
2017,10,24,00,45,13.20
2017,10,24,00,46,13.10
2017,10,24,00,47,13.10
2017,10,24,00,48,13.10
2017,10,24,00,49,13.10
2017,10,24,00,50,13.10
2017,10,24,00,51,13.10
2017,10,24,00,52,13.00
2017,10,24,00,53,13.00
2017,10,24,00,54,13.00
2017,10,24,00,55,13.00
2017,10,24,00,56,13.00
2017,10,24,00,57,13.00
2017,10,24,00,58,13.00
2017,10,24,00,59,13.00
2017,10,24,01,00,13.00
2017,10,24,01,01,13.00
2017,10,24,01,02,13.00
2017,10,24,01,03,13.00
2017,10,24,01,04,13.00
2017,10,24,01,05,13.00
2017,10,24,01,06,13.00
2017,10,24,01,07,13.00
2017,10,24,01,08,13.10
2017,10,24,01,09,13.10
2017,10,24,01,10,13.10
2017,10,24,01,11,13.10
2017,10,24,01,12,13.10
2017,10,24,01,13,13.10
2017,10,24,01,14,13.10
2017,10,24,01,15,13.10
2017,10,24,01,16,13.10
2017,10,24,01,17,13.10
2017,10,24,01,18,13.10
2017,10,24,01,19,13.10
2017,10,24,01,20,13.10
2017,10,24,01,21,13.00
2017,10,24,01,22,13.00
2017,10,24,01,23,13.00
2017,10,24,01,24,13.00
2017,10,24,01,25,13.00
2017,10,24,01,26,13.10
2017,10,24,01,27,13.10
2017,10,24,01,28,13.20
2017,10,24,01,29,13.30
2017,10,24,01,30,13.30
2017,10,24,01,31,13.30
2017,10,24,01,32,13.40
2017,10,24,01,33,13.40
2017,10,24,01,34,13.40
2017,10,24,01,35,13.40
2017,10,24,01,36,13.40
2017,10,24,01,37,13.40
2017,10,24,01,38,13.40
2017,10,24,01,39,13.30
2017,10,24,01,40,13.30
2017,10,24,01,41,13.30
2017,10,24,01,42,13.30
2017,10,24,01,43,13.30
2017,10,24,01,44,13.30
2017,10,24,01,45,13.30
2017,10,24,01,46,13.30
2017,10,24,01,47,13.30
2017,10,24,01,48,13.30
2017,10,24,01,49,13.30
2017,10,24,01,50,13.40
2017,10,24,01,51,13.40
2017,10,24,01,52,13.40
2017,10,24,01,53,13.50
2017,10,24,01,54,13.50
2017,10,24,01,55,13.60
2017,10,24,01,56,13.60
2017,10,24,01,57,13.60
2017,10,24,01,58,13.70
2017,10,24,01,59,13.70
2017,10,24,02,00,13.70
2017,10,24,02,01,13.70
2017,10,24,02,02,13.70
2017,10,24,02,03,13.80
2017,10,24,02,04,13.80
2017,10,24,02,05,13.90
2017,10,24,02,06,13.90
2017,10,24,02,07,13.90
2017,10,24,02,08,14.00
2017,10,24,02,09,14.10
2017,10,24,02,10,14.10
2017,10,24,02,11,14.10
2017,10,24,02,12,14.20
2017,10,24,02,13,14.30
2017,10,24,02,14,14.30
2017,10,24,02,15,14.30
2017,10,24,02,16,14.30
2017,10,24,02,17,14.30
2017,10,24,02,18,14.30
2017,10,24,02,19,14.30
2017,10,24,02,20,14.40
2017,10,24,02,21,14.40
2017,10,24,02,22,14.50
2017,10,24,02,23,14.60
2017,10,24,02,24,14.60
2017,10,24,02,25,14.60
2017,10,24,02,26,14.70
2017,10,24,02,27,14.70
2017,10,24,02,28,14.70
2017,10,24,02,29,14.70
2017,10,24,02,30,14.70
2017,10,24,02,31,14.60
2017,10,24,02,32,14.60
2017,10,24,02,33,14.60
2017,10,24,02,34,14.60
2017,10,24,02,35,14.50
2017,10,24,02,36,14.40
2017,10,24,02,37,14.40
2017,10,24,02,38,14.30
2017,10,24,02,39,14.20
2017,10,24,02,40,14.10
2017,10,24,02,41,14.00
2017,10,24,02,42,13.90
2017,10,24,02,43,13.80
2017,10,24,02,44,13.80
2017,10,24,02,45,13.70
2017,10,24,02,46,13.70
2017,10,24,02,47,13.70
2017,10,24,02,48,13.60
2017,10,24,02,49,13.50
2017,10,24,02,50,13.40
2017,10,24,02,51,13.30
2017,10,24,02,52,13.30
2017,10,24,02,53,13.20
2017,10,24,02,54,13.10
2017,10,24,02,55,13.10
2017,10,24,02,56,13.00
2017,10,24,02,57,13.00
2017,10,24,02,58,12.90
2017,10,24,02,59,12.90
2017,10,24,03,00,12.80
2017,10,24,03,01,12.80
2017,10,24,03,02,12.80
2017,10,24,03,03,12.70
2017,10,24,03,04,12.70
2017,10,24,03,05,12.60
2017,10,24,03,06,12.60
2017,10,24,03,07,12.60
2017,10,24,03,08,12.50
2017,10,24,03,09,12.50
2017,10,24,03,10,12.40
2017,10,24,03,11,12.40
2017,10,24,03,12,12.40
2017,10,24,03,13,12.30
2017,10,24,03,14,12.30
2017,10,24,03,15,12.20
2017,10,24,03,16,12.20
2017,10,24,03,17,12.10
2017,10,24,03,18,12.10
2017,10,24,03,19,12.00
2017,10,24,03,20,12.00
2017,10,24,03,21,11.90
2017,10,24,03,22,11.90
2017,10,24,03,23,11.90
2017,10,24,03,24,11.80
2017,10,24,03,25,11.80
2017,10,24,03,26,11.80
2017,10,24,03,27,11.80
2017,10,24,03,28,11.80
2017,10,24,03,29,11.70
2017,10,24,03,30,11.70
2017,10,24,03,31,11.70
2017,10,24,03,32,11.70
2017,10,24,03,33,11.70
2017,10,24,03,34,11.70
2017,10,24,03,35,11.60
2017,10,24,03,36,11.60
2017,10,24,03,37,11.50
2017,10,24,03,38,11.50
2017,10,24,03,39,11.40
2017,10,24,03,40,11.40
2017,10,24,03,41,11.40
2017,10,24,03,42,11.30
2017,10,24,03,43,11.30
2017,10,24,03,44,11.30
2017,10,24,03,45,11.20
2017,10,24,03,46,11.20
2017,10,24,03,47,11.20
2017,10,24,03,48,11.20
2017,10,24,03,49,11.10
2017,10,24,03,50,11.10
2017,10,24,03,51,11.10
2017,10,24,03,52,11.10
2017,10,24,03,53,11.10
2017,10,24,03,54,11.00
2017,10,24,03,55,11.00
2017,10,24,03,56,10.90
2017,10,24,03,57,10.90
2017,10,24,03,58,10.90
2017,10,24,03,59,10.80
2017,10,24,04,00,10.80
2017,10,24,04,01,10.80
2017,10,24,04,02,10.80
2017,10,24,04,03,10.80
2017,10,24,04,04,10.80
2017,10,24,04,05,10.80
2017,10,24,04,06,10.80
2017,10,24,04,07,10.80
2017,10,24,04,08,10.80
2017,10,24,04,09,10.80
2017,10,24,04,10,10.80
2017,10,24,04,11,10.80
2017,10,24,04,12,10.80
2017,10,24,04,13,10.80
2017,10,24,04,14,10.80
2017,10,24,04,15,10.70
2017,10,24,04,16,10.70
2017,10,24,04,17,10.70
2017,10,24,04,18,10.70
2017,10,24,04,19,10.70
2017,10,24,04,20,10.70
2017,10,24,04,21,10.60
2017,10,24,04,22,10.60
2017,10,24,04,23,10.60
2017,10,24,04,24,10.60
2017,10,24,04,25,10.60
2017,10,24,04,26,10.60
2017,10,24,04,27,10.60
2017,10,24,04,28,10.60
2017,10,24,04,29,10.60
2017,10,24,04,30,10.50
2017,10,24,04,31,10.60
2017,10,24,04,32,10.60
2017,10,24,04,33,10.60
2017,10,24,04,34,10.60
2017,10,24,04,35,10.60
2017,10,24,04,36,10.60
2017,10,24,04,37,10.60
2017,10,24,04,38,10.60
2017,10,24,04,39,10.60
2017,10,24,04,40,10.60
2017,10,24,04,41,10.60
2017,10,24,04,42,10.60
2017,10,24,04,43,10.60
2017,10,24,04,44,10.60
2017,10,24,04,45,10.70
2017,10,24,04,46,10.70
2017,10,24,04,47,10.70
2017,10,24,04,48,10.70
2017,10,24,04,49,10.70
2017,10,24,04,50,10.70
2017,10,24,04,51,10.70
2017,10,24,04,52,10.70
2017,10,24,04,53,10.70
2017,10,24,04,54,10.70
2017,10,24,04,55,10.70
2017,10,24,04,56,10.60
2017,10,24,04,57,10.60
2017,10,24,04,58,10.60
2017,10,24,04,59,10.60
2017,10,24,05,00,10.50
2017,10,24,05,01,10.50
2017,10,24,05,02,10.50
2017,10,24,05,03,10.40
2017,10,24,05,04,10.40
2017,10,24,05,05,10.30
2017,10,24,05,06,10.30
2017,10,24,05,07,10.20
2017,10,24,05,08,10.20
2017,10,24,05,09,10.20
2017,10,24,05,10,10.10
2017,10,24,05,11,10.10
2017,10,24,05,12,10.10
2017,10,24,05,13,10.10
2017,10,24,05,14,10.10
2017,10,24,05,15,10.10
2017,10,24,05,16,10.10
2017,10,24,05,17,10.10
2017,10,24,05,18,10.10
2017,10,24,05,19,10.10
2017,10,24,05,20,10.10
2017,10,24,05,21,10.10
2017,10,24,05,22,10.10
2017,10,24,05,23,10.10
2017,10,24,05,24,10.00
2017,10,24,05,25,10.00
2017,10,24,05,26,10.10
2017,10,24,05,27,10.10
2017,10,24,05,28,10.10
2017,10,24,05,29,10.10
2017,10,24,05,30,10.10
2017,10,24,05,31,10.10
2017,10,24,05,32,10.10
2017,10,24,05,33,10.10
2017,10,24,05,34,10.20
2017,10,24,05,35,10.20
2017,10,24,05,36,10.10
2017,10,24,05,37,10.10
2017,10,24,05,38,10.10
2017,10,24,05,39,10.10
2017,10,24,05,40,10.10
2017,10,24,05,41,10.10
2017,10,24,05,42,10.10
2017,10,24,05,43,10.10
2017,10,24,05,44,10.10
2017,10,24,05,45,10.10
2017,10,24,05,46,10.10
2017,10,24,05,47,10.10
2017,10,24,05,48,10.10
2017,10,24,05,49,10.10
2017,10,24,05,50,10.10
2017,10,24,05,51,10.10
2017,10,24,05,52,10.00
2017,10,24,05,53,10.00
2017,10,24,05,54,10.00
2017,10,24,05,55,9.90
2017,10,24,05,56,9.90
2017,10,24,05,57,9.90
2017,10,24,05,58,9.80
2017,10,24,05,59,9.80
2017,10,24,06,00,9.70
2017,10,24,06,01,9.70
2017,10,24,06,02,9.70
2017,10,24,06,03,9.60
2017,10,24,06,04,9.60
2017,10,24,06,05,9.60
2017,10,24,06,06,9.60
2017,10,24,06,07,9.60
2017,10,24,06,08,9.50
2017,10,24,06,09,9.50
2017,10,24,06,10,9.50
2017,10,24,06,11,9.50
2017,10,24,06,12,9.40
2017,10,24,06,13,9.40
2017,10,24,06,14,9.40
2017,10,24,06,15,9.40
2017,10,24,06,16,9.40
2017,10,24,06,17,9.40
2017,10,24,06,18,9.40
2017,10,24,06,19,9.40
2017,10,24,06,20,9.40
2017,10,24,06,21,9.40
2017,10,24,06,22,9.40
2017,10,24,06,23,9.30
2017,10,24,06,24,9.30
2017,10,24,06,25,9.30
2017,10,24,06,26,9.30
2017,10,24,06,27,9.30
2017,10,24,06,28,9.30
2017,10,24,06,29,9.30
2017,10,24,06,30,9.30
2017,10,24,06,31,9.30
2017,10,24,06,32,9.30
2017,10,24,06,33,9.30
2017,10,24,06,34,9.30
2017,10,24,06,35,9.30
2017,10,24,06,36,9.30
2017,10,24,06,37,9.30
2017,10,24,06,38,9.30
2017,10,24,06,39,9.30
2017,10,24,06,40,9.30
2017,10,24,06,41,9.30
2017,10,24,06,42,9.30
2017,10,24,06,43,9.30
2017,10,24,06,44,9.30
2017,10,24,06,45,9.30
2017,10,24,06,46,9.40
2017,10,24,06,47,9.40
2017,10,24,06,48,9.40
2017,10,24,06,49,9.40
2017,10,24,06,50,9.40
2017,10,24,06,51,9.40
2017,10,24,06,52,9.40
2017,10,24,06,53,9.40
2017,10,24,06,54,9.40
2017,10,24,06,55,9.40
2017,10,24,06,56,9.40
2017,10,24,06,57,9.30
2017,10,24,06,58,9.30
2017,10,24,06,59,9.30
2017,10,24,07,00,9.30
2017,10,24,07,01,9.30
2017,10,24,07,02,9.30
2017,10,24,07,03,9.30
2017,10,24,07,04,9.30
2017,10,24,07,05,9.30
2017,10,24,07,06,9.30
2017,10,24,07,07,9.30
2017,10,24,07,08,9.30
2017,10,24,07,09,9.30
2017,10,24,07,10,9.30
2017,10,24,07,11,9.30
2017,10,24,07,12,9.20
2017,10,24,07,13,9.20
2017,10,24,07,14,9.20
2017,10,24,07,15,9.20
2017,10,24,07,16,9.20
2017,10,24,07,17,9.10
2017,10,24,07,18,9.10
2017,10,24,07,19,9.10
2017,10,24,07,20,9.10
2017,10,24,07,21,9.10
2017,10,24,07,22,9.10
2017,10,24,07,23,9.10
2017,10,24,07,24,9.10
2017,10,24,07,25,9.10
2017,10,24,07,26,9.20
2017,10,24,07,27,9.20
2017,10,24,07,28,9.20
2017,10,24,07,29,9.20
2017,10,24,07,30,9.20
2017,10,24,07,31,9.30
2017,10,24,07,32,9.30
2017,10,24,07,33,9.30
2017,10,24,07,34,9.30
2017,10,24,07,35,9.30
2017,10,24,07,36,9.30
2017,10,24,07,37,9.30
2017,10,24,07,38,9.30
2017,10,24,07,39,9.30
2017,10,24,07,40,9.20
2017,10,24,07,41,9.10
2017,10,24,07,42,9.00
2017,10,24,07,43,8.90
2017,10,24,07,44,8.80
2017,10,24,07,45,8.80
2017,10,24,07,46,8.70
2017,10,24,07,47,8.70
2017,10,24,07,48,8.60
2017,10,24,07,49,8.60
2017,10,24,07,50,8.60
2017,10,24,07,51,8.60
2017,10,24,07,52,8.60
2017,10,24,07,53,8.60
2017,10,24,07,54,8.60
2017,10,24,07,55,8.60
2017,10,24,07,56,8.60
2017,10,24,07,57,8.60
2017,10,24,07,58,8.70
2017,10,24,07,59,8.70
2017,10,24,08,00,8.70
2017,10,24,08,01,8.70
2017,10,24,08,02,8.70
2017,10,24,08,03,8.70
2017,10,24,08,04,8.70
2017,10,24,08,05,8.70
2017,10,24,08,06,8.70
2017,10,24,08,07,8.70
2017,10,24,08,08,8.70
2017,10,24,08,09,8.80
2017,10,24,08,10,8.80
2017,10,24,08,11,8.80
2017,10,24,08,12,8.80
2017,10,24,08,13,8.80
2017,10,24,08,14,8.80
2017,10,24,08,15,8.90
2017,10,24,08,16,8.90
2017,10,24,08,17,9.00
2017,10,24,08,18,9.00
2017,10,24,08,19,9.10
2017,10,24,08,20,9.20
2017,10,24,08,21,9.20
2017,10,24,08,22,9.30
2017,10,24,08,23,9.40
2017,10,24,08,24,9.50
2017,10,24,08,25,9.50
2017,10,24,08,26,9.60
2017,10,24,08,27,9.70
2017,10,24,08,28,9.70
2017,10,24,08,29,9.80
2017,10,24,08,30,9.80
2017,10,24,08,31,9.90
2017,10,24,08,32,9.90
2017,10,24,08,33,9.90
2017,10,24,08,34,9.90
2017,10,24,08,35,9.90
2017,10,24,08,36,9.80
2017,10,24,08,37,9.70
2017,10,24,08,38,9.50
2017,10,24,08,39,9.40
2017,10,24,08,40,9.30
2017,10,24,08,41,9.20
2017,10,24,08,42,9.10
2017,10,24,08,43,9.10
2017,10,24,08,44,9.00
2017,10,24,08,45,9.00
2017,10,24,08,46,9.00
2017,10,24,08,47,9.10
2017,10,24,08,48,9.10
2017,10,24,08,49,9.10
2017,10,24,08,50,9.20
2017,10,24,08,51,9.20
2017,10,24,08,52,9.30
2017,10,24,08,53,9.30
2017,10,24,08,54,9.40
2017,10,24,08,55,9.50
2017,10,24,08,56,9.60
2017,10,24,08,57,9.60
2017,10,24,08,58,9.70
2017,10,24,08,59,9.80
2017,10,24,09,00,9.80
2017,10,24,09,01,9.90
2017,10,24,09,02,10.00
2017,10,24,09,03,10.00
2017,10,24,09,04,10.10
2017,10,24,09,05,10.10
2017,10,24,09,06,10.20
2017,10,24,09,07,10.30
2017,10,24,09,08,10.30
2017,10,24,09,09,10.40
2017,10,24,09,10,10.40
2017,10,24,09,11,10.50
2017,10,24,09,12,10.50
2017,10,24,09,13,10.60
2017,10,24,09,14,10.70
2017,10,24,09,15,10.70
2017,10,24,09,16,10.80
2017,10,24,09,17,10.90
2017,10,24,09,18,10.90
2017,10,24,09,19,10.90
2017,10,24,09,20,11.00
2017,10,24,09,21,11.10
2017,10,24,09,22,11.10
2017,10,24,09,23,11.20
2017,10,24,09,24,11.20
2017,10,24,09,25,11.20
2017,10,24,09,26,11.30
2017,10,24,09,27,11.30
2017,10,24,09,28,11.30
2017,10,24,09,29,11.30
2017,10,24,09,30,11.40
2017,10,24,09,31,11.40
2017,10,24,09,32,11.40
2017,10,24,09,33,11.50
2017,10,24,09,34,11.50
2017,10,24,09,35,11.50
2017,10,24,09,36,11.60
2017,10,24,09,37,11.60
2017,10,24,09,38,11.70
2017,10,24,09,39,11.70
2017,10,24,09,40,11.70
2017,10,24,09,41,11.70
2017,10,24,09,42,11.80
2017,10,24,09,43,11.80
2017,10,24,09,44,11.80
2017,10,24,09,45,11.90
2017,10,24,09,46,11.90
2017,10,24,09,47,12.00
2017,10,24,09,48,12.00
2017,10,24,09,49,12.10
2017,10,24,09,50,12.10
2017,10,24,09,51,12.20
2017,10,24,09,52,12.30
2017,10,24,09,53,12.30
2017,10,24,09,54,12.40
2017,10,24,09,55,12.40
2017,10,24,09,56,12.50
2017,10,24,09,57,12.60
2017,10,24,09,58,12.60
2017,10,24,09,59,12.70
2017,10,24,10,00,12.70
2017,10,24,10,01,12.70
2017,10,24,10,02,12.70
2017,10,24,10,03,12.70
2017,10,24,10,04,12.80
2017,10,24,10,05,12.80
2017,10,24,10,06,12.80
2017,10,24,10,07,12.80
2017,10,24,10,08,12.80
2017,10,24,10,09,12.80
2017,10,24,10,10,12.80
2017,10,24,10,11,12.80
2017,10,24,10,12,12.80
2017,10,24,10,13,12.80
2017,10,24,10,14,12.80
2017,10,24,10,15,12.80
2017,10,24,10,16,12.80
2017,10,24,10,17,12.80
2017,10,24,10,18,12.80
2017,10,24,10,19,12.90
2017,10,24,10,20,13.00
2017,10,24,10,21,13.00
2017,10,24,10,22,13.10
2017,10,24,10,23,13.10
2017,10,24,10,24,13.20
2017,10,24,10,25,13.30
2017,10,24,10,26,13.30
2017,10,24,10,27,13.40
2017,10,24,10,28,13.50
2017,10,24,10,29,13.50
2017,10,24,10,30,13.60
2017,10,24,10,31,13.60
2017,10,24,10,32,13.60
2017,10,24,10,33,13.60
2017,10,24,10,34,13.60
2017,10,24,10,35,13.50
2017,10,24,10,36,13.40
2017,10,24,10,37,13.40
2017,10,24,10,38,13.40
2017,10,24,10,39,13.30
2017,10,24,10,40,13.30
2017,10,24,10,41,13.30
2017,10,24,10,42,13.30
2017,10,24,10,43,13.30
2017,10,24,10,44,13.30
2017,10,24,10,45,13.30
2017,10,24,10,46,13.30
2017,10,24,10,47,13.30
2017,10,24,10,48,13.30
2017,10,24,10,49,13.30
2017,10,24,10,50,13.30
2017,10,24,10,51,13.40
2017,10,24,10,52,13.40
2017,10,24,10,53,13.40
2017,10,24,10,54,13.40
2017,10,24,10,55,13.40
2017,10,24,10,56,13.40
2017,10,24,10,57,13.50
2017,10,24,10,58,13.50
2017,10,24,10,59,13.50
2017,10,24,11,00,13.50
2017,10,24,11,01,13.50
2017,10,24,11,02,13.50
2017,10,24,11,03,13.50
2017,10,24,11,04,13.60
2017,10,24,11,05,13.60
2017,10,24,11,06,13.60
2017,10,24,11,07,13.60
2017,10,24,11,08,13.60
2017,10,24,11,09,13.60
2017,10,24,11,10,13.60
2017,10,24,11,11,13.70
2017,10,24,11,12,13.70
2017,10,24,11,13,13.70
2017,10,24,11,14,13.70
2017,10,24,11,15,13.70
2017,10,24,11,16,13.70
2017,10,24,11,17,13.70
2017,10,24,11,18,13.70
2017,10,24,11,19,13.80
2017,10,24,11,20,13.80
2017,10,24,11,21,13.90
2017,10,24,11,22,14.00
2017,10,24,11,23,14.10
2017,10,24,11,24,14.20
2017,10,24,11,25,14.20
2017,10,24,11,26,14.30
2017,10,24,11,27,14.30
2017,10,24,11,28,14.30
2017,10,24,11,29,14.20
2017,10,24,11,30,14.20
2017,10,24,11,31,14.20
2017,10,24,11,32,14.20
2017,10,24,11,33,14.20
2017,10,24,11,34,14.10
2017,10,24,11,35,14.10
2017,10,24,11,36,14.00
2017,10,24,11,37,14.00
2017,10,24,11,38,13.90
2017,10,24,11,39,13.90
2017,10,24,11,40,13.80
2017,10,24,11,41,13.80
2017,10,24,11,42,13.70
2017,10,24,11,43,13.70
2017,10,24,11,44,13.60
2017,10,24,11,45,13.60
2017,10,24,11,46,13.60
2017,10,24,11,47,13.60
2017,10,24,11,48,13.60
2017,10,24,11,49,13.60
2017,10,24,11,50,13.60
2017,10,24,11,51,13.60
2017,10,24,11,52,13.70
2017,10,24,11,53,13.70
2017,10,24,11,54,13.70
2017,10,24,11,55,13.70
2017,10,24,11,56,13.80
2017,10,24,11,57,13.80
2017,10,24,11,58,13.80
2017,10,24,11,59,13.80
2017,10,24,12,00,13.90
2017,10,24,12,01,13.90
2017,10,24,12,02,13.90
2017,10,24,12,03,13.90
2017,10,24,12,04,13.90
2017,10,24,12,05,14.00
2017,10,24,12,06,14.00
2017,10,24,12,07,14.00
2017,10,24,12,08,14.10
2017,10,24,12,09,14.10
2017,10,24,12,10,14.10
2017,10,24,12,11,14.10
2017,10,24,12,12,14.00
2017,10,24,12,13,14.00
2017,10,24,12,14,13.90
2017,10,24,12,15,13.90
2017,10,24,12,16,13.90
2017,10,24,12,17,13.80
2017,10,24,12,18,13.80
2017,10,24,12,19,13.80
2017,10,24,12,20,13.80
2017,10,24,12,21,13.80
2017,10,24,12,22,13.80
2017,10,24,12,23,13.80
2017,10,24,12,24,13.80
2017,10,24,12,25,13.80
2017,10,24,12,26,13.80
2017,10,24,12,27,13.80
2017,10,24,12,28,13.80
2017,10,24,12,29,13.80
2017,10,24,12,30,13.70
2017,10,24,12,31,13.70
2017,10,24,12,32,13.70
2017,10,24,12,33,13.70
2017,10,24,12,34,13.70
2017,10,24,12,35,13.70
2017,10,24,12,36,13.70
2017,10,24,12,37,13.70
2017,10,24,12,38,13.80
2017,10,24,12,39,13.80
2017,10,24,12,40,13.80
2017,10,24,12,41,13.80
2017,10,24,12,42,13.80
2017,10,24,12,43,13.80
2017,10,24,12,44,13.80
2017,10,24,12,45,13.90
2017,10,24,12,46,13.90
2017,10,24,12,47,13.90
2017,10,24,12,48,13.90
2017,10,24,12,49,13.90
2017,10,24,12,50,14.00
2017,10,24,12,51,14.00
2017,10,24,12,52,13.90
2017,10,24,12,53,13.90
2017,10,24,12,54,13.90
2017,10,24,12,55,13.90
2017,10,24,12,56,14.00
2017,10,24,12,57,14.00
2017,10,24,12,58,14.00
2017,10,24,12,59,14.00
2017,10,24,13,00,14.10
2017,10,24,13,01,14.10
2017,10,24,13,02,14.10
2017,10,24,13,03,14.10
2017,10,24,13,04,14.10
2017,10,24,13,05,14.10
2017,10,24,13,06,14.10
2017,10,24,13,07,14.10
2017,10,24,13,08,14.20
2017,10,24,13,09,14.10
2017,10,24,13,10,14.10
2017,10,24,13,11,14.10
2017,10,24,13,12,14.10
2017,10,24,13,13,14.10
2017,10,24,13,14,14.10
2017,10,24,13,15,14.00
2017,10,24,13,16,14.00
2017,10,24,13,17,13.90
2017,10,24,13,18,13.90
2017,10,24,13,19,13.90
2017,10,24,13,20,13.80
2017,10,24,13,21,13.80
2017,10,24,13,22,13.80
2017,10,24,13,23,13.70
2017,10,24,13,24,13.70
2017,10,24,13,25,13.60
2017,10,24,13,26,13.60
2017,10,24,13,27,13.50
2017,10,24,13,28,13.50
2017,10,24,13,29,13.40
2017,10,24,13,30,13.40
2017,10,24,13,31,13.40
2017,10,24,13,32,13.30
2017,10,24,13,33,13.30
2017,10,24,13,34,13.30
2017,10,24,13,35,13.30
2017,10,24,13,36,13.20
2017,10,24,13,37,13.20
2017,10,24,13,38,13.20
2017,10,24,13,39,13.20
2017,10,24,13,40,13.10
2017,10,24,13,41,13.10
2017,10,24,13,42,13.00
2017,10,24,13,43,12.90
2017,10,24,13,44,12.90
2017,10,24,13,45,12.80
2017,10,24,13,46,12.80
2017,10,24,13,47,12.80
2017,10,24,13,48,12.80
2017,10,24,13,49,12.80
2017,10,24,13,50,12.80
2017,10,24,13,51,12.80
2017,10,24,13,52,12.70
2017,10,24,13,53,12.70
2017,10,24,13,54,12.70
2017,10,24,13,55,12.70
2017,10,24,13,56,12.70
2017,10,24,13,57,12.70
2017,10,24,13,58,12.70
2017,10,24,13,59,12.70
2017,10,24,14,00,12.70
2017,10,24,14,01,12.80
2017,10,24,14,02,12.80
2017,10,24,14,03,12.80
2017,10,24,14,04,12.80
2017,10,24,14,05,12.90
2017,10,24,14,06,12.90
2017,10,24,14,07,12.90
2017,10,24,14,08,12.90
2017,10,24,14,09,13.00
2017,10,24,14,10,13.00
2017,10,24,14,11,13.00
2017,10,24,14,12,13.10
2017,10,24,14,13,13.10
2017,10,24,14,14,13.20
2017,10,24,14,15,13.20
2017,10,24,14,16,13.20
2017,10,24,14,17,13.30
2017,10,24,14,18,13.30
2017,10,24,14,19,13.30
2017,10,24,14,20,13.30
2017,10,24,14,21,13.30
2017,10,24,14,22,13.40
2017,10,24,14,23,13.40
2017,10,24,14,24,13.40
2017,10,24,14,25,13.50
2017,10,24,14,26,13.50
2017,10,24,14,27,13.60
2017,10,24,14,28,13.60
2017,10,24,14,29,13.60
2017,10,24,14,30,13.60
2017,10,24,14,31,13.70
2017,10,24,14,32,13.70
2017,10,24,14,33,13.80
2017,10,24,14,34,13.80
2017,10,24,14,35,13.90
2017,10,24,14,36,13.90
2017,10,24,14,37,14.00
2017,10,24,14,38,14.10
2017,10,24,14,39,14.20
2017,10,24,14,40,14.30
2017,10,24,14,41,14.40
2017,10,24,14,42,14.50
2017,10,24,14,43,14.50
2017,10,24,14,44,14.50
2017,10,24,14,45,14.50
2017,10,24,14,46,14.50
2017,10,24,14,47,14.50
2017,10,24,14,48,14.50
2017,10,24,14,49,14.50
2017,10,24,14,50,14.50
2017,10,24,14,51,14.60
2017,10,24,14,52,14.60
2017,10,24,14,53,14.60
2017,10,24,14,54,14.60
2017,10,24,14,55,14.70
2017,10,24,14,56,14.70
2017,10,24,14,57,14.70
2017,10,24,14,58,14.70
2017,10,24,14,59,14.60
2017,10,24,15,00,14.60
2017,10,24,15,01,14.50
2017,10,24,15,02,14.40
2017,10,24,15,03,14.40
2017,10,24,15,04,14.40
2017,10,24,15,05,14.40
2017,10,24,15,06,14.40
2017,10,24,15,07,14.40
2017,10,24,15,08,14.40
2017,10,24,15,09,14.40
2017,10,24,15,10,14.50
2017,10,24,15,11,14.50
2017,10,24,15,12,14.60
2017,10,24,15,13,14.60
2017,10,24,15,14,14.60
2017,10,24,15,15,14.70
2017,10,24,15,16,14.70
2017,10,24,15,17,14.60
2017,10,24,15,18,14.60
2017,10,24,15,19,14.60
2017,10,24,15,20,14.60
2017,10,24,15,21,14.60
2017,10,24,15,22,14.60
2017,10,24,15,23,14.60
2017,10,24,15,24,14.60
2017,10,24,15,25,14.60
2017,10,24,15,26,14.70
2017,10,24,15,27,14.70
2017,10,24,15,28,14.70
2017,10,24,15,29,14.70
2017,10,24,15,30,14.60
2017,10,24,15,31,14.60
2017,10,24,15,32,14.60
2017,10,24,15,33,14.60
2017,10,24,15,34,14.60
2017,10,24,15,35,14.70
2017,10,24,15,36,14.70
2017,10,24,15,37,14.70
2017,10,24,15,38,14.70
2017,10,24,15,39,14.80
2017,10,24,15,40,14.80
2017,10,24,15,41,14.90
2017,10,24,15,42,14.90
2017,10,24,15,43,15.00
2017,10,24,15,44,15.10
2017,10,24,15,45,15.10
2017,10,24,15,46,15.10
2017,10,24,15,47,15.10
2017,10,24,15,48,15.10
2017,10,24,15,49,15.10
2017,10,24,15,50,15.00
2017,10,24,15,51,15.00
2017,10,24,15,52,14.90
2017,10,24,15,53,14.90
2017,10,24,15,54,14.90
2017,10,24,15,55,14.90
2017,10,24,15,56,14.90
2017,10,24,15,57,14.90
2017,10,24,15,58,14.80
2017,10,24,15,59,14.80
2017,10,24,16,00,14.80
2017,10,24,16,01,14.80
2017,10,24,16,02,14.70
2017,10,24,16,03,14.70
2017,10,24,16,04,14.70
2017,10,24,16,05,14.70
2017,10,24,16,06,14.70
2017,10,24,16,07,14.70
2017,10,24,16,08,14.70
2017,10,24,16,09,14.70
2017,10,24,16,10,14.70
2017,10,24,16,11,14.70
2017,10,24,16,12,14.80
2017,10,24,16,13,14.80
2017,10,24,16,14,14.80
2017,10,24,16,15,14.80
2017,10,24,16,16,14.80
2017,10,24,16,17,14.80
2017,10,24,16,18,14.80
2017,10,24,16,19,14.80
2017,10,24,16,20,14.80
2017,10,24,16,21,14.80
2017,10,24,16,22,14.80
2017,10,24,16,23,14.80
2017,10,24,16,24,14.80
2017,10,24,16,25,14.80
2017,10,24,16,26,14.80
2017,10,24,16,27,14.80
2017,10,24,16,28,14.80
2017,10,24,16,29,14.80
2017,10,24,16,30,14.80
2017,10,24,16,31,14.70
2017,10,24,16,32,14.70
2017,10,24,16,33,14.70
2017,10,24,16,34,14.70
2017,10,24,16,35,14.70
2017,10,24,16,36,14.70
2017,10,24,16,37,14.80
2017,10,24,16,38,14.80
2017,10,24,16,39,14.80
2017,10,24,16,40,14.80
2017,10,24,16,41,14.80
2017,10,24,16,42,14.80
2017,10,24,16,43,14.80
2017,10,24,16,44,14.90
2017,10,24,16,45,14.90
2017,10,24,16,46,14.90
2017,10,24,16,47,14.90
2017,10,24,16,48,15.00
2017,10,24,16,49,15.00
2017,10,24,16,50,15.10
2017,10,24,16,51,15.10
2017,10,24,16,52,15.10
2017,10,24,16,53,15.10
2017,10,24,16,54,15.20
2017,10,24,16,55,15.20
2017,10,24,16,56,15.20
2017,10,24,16,57,15.20
2017,10,24,16,58,15.20
2017,10,24,16,59,15.30
2017,10,24,17,00,15.30
2017,10,24,17,01,15.30
2017,10,24,17,02,15.30
2017,10,24,17,03,15.30
2017,10,24,17,04,15.40
2017,10,24,17,05,15.40
2017,10,24,17,06,15.40
2017,10,24,17,07,15.40
2017,10,24,17,08,15.40
2017,10,24,17,09,15.30
2017,10,24,17,10,15.30
2017,10,24,17,11,15.20
2017,10,24,17,12,15.20
2017,10,24,17,13,15.10
2017,10,24,17,14,15.00
2017,10,24,17,15,14.90
2017,10,24,17,16,14.80
2017,10,24,17,17,14.80
2017,10,24,17,18,14.70
2017,10,24,17,19,14.60
2017,10,24,17,20,14.60
2017,10,24,17,21,14.50
2017,10,24,17,22,14.40
2017,10,24,17,23,14.30
2017,10,24,17,24,14.20
2017,10,24,17,25,14.10
2017,10,24,17,26,14.10
2017,10,24,17,27,14.00